Regional Weather Roundup
Issued by NWS

Home | Current Version | Previous Version | Text Only | Print | Product List | Glossary Off
Versions: 1 2 3 4 5 6 7 8 9 10 11 12 13 14 15 16 17 18 19 20 21 22 23 24 25 26 27 28 29 30 31 32 33 34 35 36 37 38 39 40 41 42 43 44 45 46 47 48 49 50

000
ASUS43 KIND 231159
RWRIN

WEATHER ROUNDUP FOR INDIANA
NATIONAL WEATHER SERVICE INDIANAPOLIS IN
700 AM EST FRI FEB 23 2018

NOTE: "FAIR" INDICATES FEW OR NO CLOUDS BELOW 12,000 FEET WITH NO
SIGNIFICANT WEATHER AND/OR OBSTRUCTIONS TO VISIBILITY.

* - STATION DOES NOT REPORT WEATHER SUCH AS PRECIPITATION OR FOG.

+ - STATION NOT QUALITY CONTROLLED BY THE NATIONAL WEATHER SERVICE.
    USE DATA WITH CAUTION...ESPECIALLY DEWPOINT AND RELATIVE
    HUMIDITY OBSERVATIONS.

INZ001>003-010>013-019-020-231300-
NORTHWEST INDIANA

CITY           SKY/WX    TMP DP  RH WIND       PRES   REMARKS
MICHIGAN CITY+ HVY RAIN  37  37 100 S5        30.13R WCI  34
MONTICELLO +   DRIZZLE   39  38  95 SE3       30.10F
6HR MIN TEMP:  37; 6HR MAX TEMP:  39; 6HR PCP:  0.11;

RENSSELAER +   DRIZZLE   39  36  87 CALM      30.14R
VALPARAISO     LGT RAIN  39  37  93 SE5       30.13S FOG     WCI  36

$$

LMZ046-743>745-231300-
SOUTHERN LAKE MICHIGAN

STATION/POSITION TIME  TEMP    WIND        PRES    WAVE
                       AIR SEA DIR/SP/G            HT
                 (UTC) (F)     (DEG/KT/KT) (MB)    (FT)
BURNS HARBOR     1140   40     170/  8/ 15 1020.3F
MICHIGAN CITY    1130   39     130/ 16/ 18   N/A

$$

INZ004-005-014>016-021>024-231300-
NORTH CENTRAL INDIANA

CITY           SKY/WX    TMP DP  RH WIND       PRES   REMARKS
ELKHART        DRIZZLE   37  36  93 SE6       30.12  WCI  33
GOSHEN         CLOUDY    37  37 100 SE6       30.13F FOG     WCI  32
6HR MIN TEMP:  35; 6HR MAX TEMP:  37; 6HR PCP:  0.01;

PERU/GRISSOM   LGT RAIN  39  39 100 E8        30.11F FOG     WCI  34
SOUTH BEND     CLOUDY    37  37 100 SE8       30.12F FOG     WCI  31
6HR MIN TEMP:  35; 6HR MAX TEMP:  37; 6HR PCP:  0.01;

WARSAW +       DRIZZLE   36  36 100 MISG      30.12F

$$

INZ006>009-017-018-025>027-231300-
NORTHEAST INDIANA

CITY           SKY/WX    TMP DP  RH WIND       PRES   REMARKS
AUBURN +       CLOUDY    36  36 100 E6        30.16F FOG     WCI  31
FORT WAYNE     DRIZZLE   38  38 100 E9        30.15F FOG     WCI  31
6HR MIN TEMP:  36; 6HR MAX TEMP:  38; 6HR PCP:  0.04;

KENDALLVILLE + CLOUDY    35  35 100 SE10      30.15F FOG     WCI  28

$$

INZ028-029-035-036-043>045-051>053-231300-
WEST CENTRAL INDIANA

CITY           SKY/WX    TMP DP  RH WIND       PRES   REMARKS
CRAWFORDSVL +  HVY RAIN  46  46 100 SE7         N/A
6HR MIN TEMP:  41; 6HR MAX TEMP:  46; 6HR PCP:  0.10;

GREENCASTLE +  CLOUDY    50  50 100 S12       30.12S
LAFAYETTE      LGT RAIN  43  43 100 E3        30.11S FOG
6HR MIN TEMP:  42; 6HR MAX TEMP:  44; 6HR PCP:  0.07;

TERRE HAUTE    CLOUDY    52  52 100 S7        30.11F
6HR MIN TEMP:  44; 6HR MAX TEMP:  52; 6HR PCP:  0.14;


$$

INZ030>032-037>040-046>048-054>057-064-065-231300-
CENTRAL INDIANA

CITY           SKY/WX    TMP DP  RH WIND       PRES   REMARKS
COLUMBUS       LGT RAIN  50 N/A N/A S9        30.16  VSB 1
GREENWOOD *+   CLOUDY    48 -42   2 S12       30.15F
INDIANAPOLIS   CLOUDY    48  48 100 S8        30.13F
6HR MIN TEMP:  44; 6HR MAX TEMP:  48; 6HR PCP:  0.01;

-EAGLE CREEK   LGT RAIN  49  47  93 S7        30.12F
6HR MIN TEMP:  44; 6HR MAX TEMP:  49; 6HR PCP:  0.02;

KOKOMO +       LGT RAIN  41  41 100 SE9       30.12F FOG
6HR MIN TEMP:  37; 6HR MAX TEMP:  41; 6HR PCP:  0.05;

MT COMFORT *+  CLOUDY    48  48 100 S8        30.13F
SHELBYVILLE    CLOUDY    52  50  93 S10       30.14F
6HR MIN TEMP:  45; 6HR MAX TEMP:  52; 6HR PCP:  0.11;


$$

INZ033-034-041-042-049-050-058-059-231300-
EAST CENTRAL INDIANA

CITY           SKY/WX    TMP DP  RH WIND       PRES   REMARKS
MUNCIE         CLOUDY    48  46  93 SE6       30.13F FOG
6HR MIN TEMP:  41; 6HR MAX TEMP:  48; 6HR PCP: TRACE;

RICHMOND +     CLOUDY    46  46 100 S12       30.16F FOG

$$

INZ060-061-067>069-081>083-085>088-231300-
SOUTHWEST INDIANA

CITY           SKY/WX    TMP DP  RH WIND       PRES   REMARKS
EVANSVILLE     LGT RAIN  59  59 100 S8        30.17R
6HR MIN TEMP:  48; 6HR MAX TEMP:  59; 6HR PCP:  0.64;

HUNTINGBURG +  CLOUDY    58  57  97 S15       30.18R
6HR MIN TEMP:  48; 6HR MAX TEMP:  58; 6HR PCP:  0.78;


$$

INZ062-063-066-070>080-084-089>092-231300-
SOUTH CENTRAL AND SOUTHEAST INDIANA

CITY           SKY/WX    TMP DP  RH WIND       PRES   REMARKS
BLOOMINGTON    CLOUDY    52  52 100 S8        30.15S
6HR MIN TEMP:  44; 6HR MAX TEMP:  53; 6HR PCP:  0.21;

FRENCH LICK *+ CLOUDY    55 N/A N/A S9        30.18R
SEYMOUR +      CLOUDY    52  52 100 S6        30.18S

$$





USA.gov is the U.S. government's official web portal to all federal, state and local government web resources and services.